TimeEDT,TemperatureF,Dew PointF,Humidity,Sea Level PressureIn,VisibilityMPH,Wind Direction,Wind SpeedMPH,Gust SpeedMPH,PrecipitationIn,Events,Conditions,WindDirDegrees,DateUTC
12:54 AM,73.0,61.0,66,29.72,10.0,SSW,12.7,-,N/A,,Overcast,210,2013-05-23 04:54:00
1:54 AM,72.0,60.1,66,29.71,10.0,SW,10.4,-,N/A,,Overcast,220,2013-05-23 05:54:00
2:54 AM,71.1,60.1,68,29.71,10.0,SW,8.1,-,N/A,,Overcast,220,2013-05-23 06:54:00
3:54 AM,71.1,61.0,70,29.72,10.0,West,6.9,-,N/A,,Overcast,280,2013-05-23 07:54:00
4:54 AM,69.1,61.0,75,29.71,10.0,SSW,4.6,-,N/A,,Overcast,210,2013-05-23 08:54:00
5:54 AM,69.1,61.0,75,29.70,10.0,South,4.6,-,0.00,Rain,Light Rain,190,2013-05-23 09:54:00
6:54 AM,68.0,62.1,81,29.72,10.0,SSW,8.1,-,0.00,,Overcast,200,2013-05-23 10:54:00
7:54 AM,69.1,63.0,81,29.74,10.0,SSW,11.5,-,0.00,,Overcast,210,2013-05-23 11:54:00
8:54 AM,72.0,63.0,73,29.74,10.0,SW,8.1,-,N/A,,Overcast,220,2013-05-23 12:54:00
9:54 AM,72.0,62.1,71,29.75,10.0,West,12.7,21.9,N/A,,Mostly Cloudy,260,2013-05-23 13:54:00
10:49 AM,68.0,62.6,83,29.76,10.0,WSW,10.4,19.6,0.00,Rain-Thunderstorm,Light Thunderstorms and Rain,250,2013-05-23 14:49:00
10:54 AM,68.0,62.1,81,29.76,10.0,WSW,10.4,-,0.00,Rain-Thunderstorm,Light Thunderstorms and Rain,240,2013-05-23 14:54:00
11:15 AM,69.8,62.6,78,29.75,10.0,WSW,12.7,18.4,0.00,,Overcast,240,2013-05-23 15:15:00
11:54 AM,73.9,61.0,64,29.76,10.0,SW,12.7,-,0.00,,Overcast,230,2013-05-23 15:54:00
12:54 PM,75.0,57.9,55,29.75,10.0,West,16.1,23.0,N/A,,Overcast,270,2013-05-23 16:54:00
1:54 PM,75.9,60.1,58,29.73,10.0,SW,12.7,-,N/A,,Mostly Cloudy,230,2013-05-23 17:54:00
2:54 PM,73.9,55.9,53,29.72,10.0,West,15.0,26.5,N/A,,Overcast,280,2013-05-23 18:54:00
3:54 PM,69.1,60.1,73,29.74,10.0,WSW,12.7,-,0.00,Rain,Light Rain,250,2013-05-23 19:54:00
4:54 PM,71.1,60.1,68,29.73,10.0,West,10.4,-,0.00,,Mostly Cloudy,260,2013-05-23 20:54:00
5:54 PM,69.1,59.0,70,29.73,10.0,NNW,11.5,-,N/A,,Mostly Cloudy,340,2013-05-23 21:54:00
6:54 PM,62.1,54.0,75,29.76,10.0,North,12.7,-,0.00,,Overcast,350,2013-05-23 22:54:00
7:54 PM,60.1,52.0,75,29.79,10.0,NW,10.4,-,0.00,,Overcast,310,2013-05-23 23:54:00
8:12 PM,57.2,51.8,82,29.80,10.0,NNW,10.4,-,0.00,Rain,Light Rain,330,2013-05-24 00:12:00
8:24 PM,57.2,51.8,82,29.81,10.0,North,9.2,-,0.01,Rain,Light Rain,350,2013-05-24 00:24:00
8:54 PM,55.0,51.1,86,29.83,10.0,NNE,15.0,-,0.01,Rain,Light Rain,20,2013-05-24 00:54:00
9:54 PM,50.0,48.0,93,29.86,7.0,North,13.8,-,0.00,Rain,Light Rain,10,2013-05-24 01:54:00
9:56 PM,50.0,48.2,94,29.85,7.0,North,11.5,-,0.00,Rain,Light Rain,360,2013-05-24 01:56:00
10:32 PM,48.2,46.4,93,29.86,10.0,North,16.1,21.9,0.01,Rain,Light Rain,360,2013-05-24 02:32:00
10:54 PM,48.0,45.0,89,29.88,10.0,North,16.1,-,0.01,Rain,Light Rain,350,2013-05-24 02:54:00
11:37 PM,46.4,42.8,87,29.89,6.0,North,13.8,-,0.01,Rain,Light Rain,350,2013-05-24 03:37:00
11:54 PM,46.0,43.0,89,29.90,6.0,North,16.1,-,0.01,Rain,Light Rain,350,2013-05-24 03:54:00